weather.gov     
National Weather Service

Regional Weather Roundup
NWS Homepage
This page is being discontinued on March 12, 2014.
The same data is available at this site. Please update your bookmarks.
Thank you, and we apologize for the inconvenience.
Please send an email to SR-SRH.Webmaster@noaa.gov with any concerns.


Current Version
Previous Version:    01  02  03  04  05  06  07  08  09  10  11  12  13  14  15  16  17  18  19  20  21  22  23  24  25  26  27  28  29  30  
[Printable]
567
ASUS42 KILM 220410
RWRILM
RWRILM
REGIONAL HOURLY WEATHER ROUNDUP
NATIONAL WEATHER SERVICE WILMINGTON NC
1200 AM EDT MON SEP 22 2014

NOTE: "FAIR" INDICATES FEW OR NO CLOUDS BELOW 12,000 FEET WITH NO
SIGNIFICANT WEATHER AND/OR OBSTRUCTIONS TO VISIBILITY.

...............WFO WILMINGTON COUNTY WARNING AREA...............

......COASTAL NC AND SC COUNTIES......

CITY           SKY/WX    TMP DP  RH WIND       PRES   REMARKS
WILMINGTON     CLEAR     75  70  84 SW12      29.91S
SOUTHPORT      CLEAR     77  70  78 W9G17     29.93R
N MYRTLE BEACH CLEAR     78  64  61 SW12      29.92S
MYRTLE BEACH   CLEAR     77  64  65 SW10      29.93F

......INLAND NC AND SC COUNTIES.......

CITY           SKY/WX    TMP DP  RH WIND       PRES   REMARKS
LUMBERTON      CLEAR     73  65  75 SW6       29.90R
ELIZABETHTOWN  CLEAR     73  65  75 S5        29.91S
WHITEVILLE     CLEAR     73  65  77 SW6       29.91S
FLORENCE       CLEAR     74  65  73 SW7       29.92R
DARLINGTON     CLOUDY    72  64  78 SW7       29.92S

....................REST OF NORTH CAROLINA......................

.........EASTERN NC.........

CITY           SKY/WX    TMP DP  RH WIND       PRES   REMARKS
CAPE HATTERAS  CLEAR     75  70  84 W14G25    29.86S
JACKSONVILLE   CLEAR     72  63  73 SW8       29.90S
MOREHEAD CITY  CLEAR     79  71  76 SW14G21   29.89R
KENANSVILLE    PTCLDY    72  64  78 CALM      29.90S
NEW BERN       CLEAR     73  64  73 SW6       29.89R
ELIZABETH CITY CLEAR     73  66  78 SW12      29.81R

.........CENTRAL NC.........

CITY           SKY/WX    TMP DP  RH WIND       PRES   REMARKS
RALEIGH DURHAM HVY RAIN  72  67  84 SW15G21   29.87S FOG
ROCKY MOUNT    MOCLDY    74  65  73 SW9       29.85S
ROANOKE RAPIDS NOT AVBL
FAYETTEVILLE   CLEAR     74  64  71 S9        29.88S
HOFFMAN        NOT AVBL

.........WESTERN NC.........

CITY           SKY/WX    TMP DP  RH WIND       PRES   REMARKS
CHARLOTTE      CLOUDY    73  65  75 W3        29.91S
GREENSBORO     PTCLDY    69  66  90 NW9       29.89R
HICKORY        NOT AVBL
BOONE          NOT AVBL
ASHEVILLE      NOT AVBL

.....................REST OF SOUTH CAROLINA.....................

.........EASTERN SC.........

CITY           SKY/WX    TMP DP  RH WIND       PRES   REMARKS
CHARLESTON     CLEAR     74  68  81 SW8       29.96F
BEAUFORT MCAS  CLEAR     73  67  81 SE8       29.97F
HILTON HEAD    NOT AVBL

.........CENTRAL SC.........

CITY           SKY/WX    TMP DP  RH WIND       PRES   REMARKS
COLUMBIA       CLOUDY    77  62  59 SW7       29.92S
ORANGEBURG     CLEAR     70  64  81 SW8       29.95F
SUMTER SHAW    CLEAR     75  65  70 SW10      29.91S

.........WESTERN SC.........

CITY           SKY/WX    TMP DP  RH WIND       PRES   REMARKS
GREENVILLE     NOT AVBL
ROCK HILL      CLOUDY    75  65  70 W6        29.92S
ANDERSON       CLOUDY    78  64  61 W9        29.94R
CLEMSON        NOT AVBL
GREENWOOD      CLOUDY    76  62  62 SW12      29.94F


...................COASTAL AND OFFSHORE REPORTS..................

................LOCAL PIERS AND NC RESERVE................


STATION/POSITION TIME  SKY/WX   TEMP    WIND        PRES    VSBY
                                AIR SEA DIR/SP/G
                 (UTC)          (F)     (DEG/KT/KT) (MB)    (MI)
JOHNY MRCER PIER 0400            77 80  230/ 10/ 12 1012.2R
NC RESRV MASNBRO 0300            76     220/  5     1012.0S
OCEAN CREST PIER 0400            80 79  210/ 20/ 23 1012.0S
SPRINGMAID  PIER 0400            78 79  230/ 13/ 16 1013.6S


................COASTAL AND OFFSHORE BUOYS................


STATION/POSITION TIME  SKY/WX   TEMP    WIND        PRES    VSBY
                                AIR SEA DIR/SP/G
                 (UTC)          (F)     (DEG/KT/KT) (MB)    (MI)
DIMNDSHOAL 41025 0400            80     230/ 23/ 27 1011.0R
WVE H/P(F/S)=  6/ 9 WND WVE H/P(F/S)=  5/ 5 SWL H/P/D(F/S/D)=  3/130/ 9

CAPE LOOKOUT     0300            79     240/ 12/ 16 1011.9F
ONSLOW BAY 41036 0400            82 82  240/ 19/ 25 1011.9S
WVE H/P(F/S)=  5/ 5 WND WVE H/P(F/S)=  5/ 5 SWL H/P/D(F/S/D)=  2/120/ 8

5 WRITEBCH 41038 0300            76 79  230/ 17/ 21   N/A
MASONBORO  41110 0400               79                N/A
WVE H/P(F/S)=  3/ 8 WND WVE H/P(F/S)=  3/ 8

WILM HARBR 41108 0400               79                N/A
WVE H/P(F/S)=  4/ 5 WND WVE H/P(F/S)=  3/ 5

27WRITEBCH 41037 0300            77 80  250/ 17/ 21 1012.7R
FRYING PAN 41013 NOT AVBL
SUNST NRSH 41024 0300            80     240/ 16/ 21 1012.9R
CAPRS NRSH 41029 0300            80     240/ 14/ 17   N/A
EDISTO     41004 0400            81 81  230/ 16/ 19 1014.1F
WVE H/P(F/S)=  4/ 4 WND WVE H/P(F/S)=  3/ 4 SWL H/P/D(F/S/D)=  2/ 9



..........OFFSHORE BUOYS BEYOND 100 NM OFFSHORE...........
.....IN A TRIANGLE---HAT TO BERMUDA TO BAHAMAS TO HAT.....


STATION/POSITION TIME  SKY/WX   TEMP    WIND        PRES    VSBY
                                AIR SEA DIR/SP/G
                 (UTC)          (F)     (DEG/KT/KT) (MB)    (MI)
150E HAT   41001 NOT AVBL
W BERMUDA  41048 0318            81 80  200/ 17/ 21 1016.1R
WVE H/P(F/S)=  7/ 7 WND WVE H/P(F/S)=  7/ 7 SWL H/P/D(F/S/D)=  3/ 10/ 9

ATLANTIC S 41049 0340            83 85  110/ 14/ 16 1020.8F
WVE H/P(F/S)=  5/ 7 WND WVE H/P(F/S)=  3/ 4 SWL H/P/D(F/S/D)=  5/130/ 7

E BAHAMAS  41046 0306            83 85  100/  8/ 10 1018.6
WVE H/P(F/S)=  4/ 7 WND WVE H/P(F/S)=  2/ 4 SWL H/P/D(F/S/D)=  3/ 90/ 7

NE BAHAMAS 41047 0309            82 83  190/ 10/ 10 1018.2F
WVE H/P(F/S)=  4/ 9 WND WVE H/P(F/S)=  2/ 3 SWL H/P/D(F/S/D)=  3/ 20/ 9

120E CANVRL41010 0400            81 85  170/  6/ 10 1016.9F
WVE H/P(F/S)=  5/ 9 WND WVE H/P(F/S)=  2/ 4 SWL H/P/D(F/S/D)=  5/ 20/ 9


END




U.S. Dept. of Commerce
NOAA National Weather Service
1325 East West Highway
Silver Spring, MD 20910
E-mail: w-nws.webmaster@noaa.gov
Page last modified: May 16, 2007
NATIONAL WEATHER SERVICE: for Safety, for Work, for Fun - FOR LIFE